Location: Northam
(31.6525°S, 116.6655°E)
Time: 20:18:29
(UTC+08:00)

Explorer 11/Cluster Stage 4 - Visible Passes

Search period start: 13 June 2021 00:00
Search period end: 23 June 2021 00:00
Orbit: 467 x 1257 km, 28.8° (Epoch: 12 June)

Date Brightness Start Highest point End Pass type
(mag) Time Alt. Az. Time Alt. Az. Time Alt. Az.
13 Jun 7.5 18:14:41 10° NW 18:19:04 34° NNE 18:23:11 15° E visible
13 Jun 7.8 20:01:54 10° WNW 20:05:18 40° WNW 20:05:18 40° WNW visible
14 Jun 7.3 18:03:43 10° NW 18:07:59 37° NNE 18:12:43 12° E visible
14 Jun 7.4 19:51:01 10° WNW 19:54:50 48° NW 19:54:50 48° NW visible
15 Jun 7.1 17:52:46 10° NW 17:56:55 40° NNE 18:02:02 10° E visible
15 Jun 7.0 19:40:09 10° WNW 19:44:22 57° NW 19:44:22 57° NW visible
16 Jun 7.0 17:41:50 10° NW 17:45:54 43° NNE 17:50:52 10° E visible
16 Jun 6.7 19:29:18 10° W 19:33:54 65° NNW 19:33:54 65° NNW visible
17 Jun 6.5 19:18:27 10° W 19:23:10 65° N 19:23:29 63° NNE visible
18 Jun 6.5 19:07:38 10° W 19:12:08 63° N 19:13:05 52° NE visible
19 Jun 6.5 18:56:49 10° W 19:01:09 59° N 19:02:44 40° NE visible
19 Jun 9.4 20:44:50 10° W 20:44:52 10° W 20:44:52 10° W visible
20 Jun 6.6 18:46:00 10° W 18:50:10 55° N 18:52:27 29° ENE visible
20 Jun 9.2 20:34:06 10° W 20:34:35 13° WNW 20:34:35 13° WNW visible
21 Jun 6.7 18:35:12 10° W 18:39:11 50° N 18:42:15 20° ENE visible
21 Jun 9.0 20:23:26 10° WNW 20:24:24 15° WNW 20:24:24 15° WNW visible
22 Jun 6.8 18:24:24 10° W 18:28:14 45° N 18:32:09 13° ENE visible
22 Jun 8.8 20:12:50 10° WNW 20:14:17 16° NW 20:14:17 16° NW visible
